Weather History for Cloquet, MN

Change the Weather History Date:

Thursday, November 15, 2012

  Actual Average Record
Temperature  
Mean Temperature 32 °F -  
Max Temperature 42 °F 35 °F 62 °F (2001)
Min Temperature 21 °F 22 °F 6 °F (2002)
Degree Days  
Heating Degree Days 34    
Moisture  
Dew Point 14 °F    
Average Humidity 51    
Maximum Humidity 81    
Minimum Humidity 15    
Precipitation  
Precipitation 0.00 in - - ()
Sea Level Pressure  
Sea Level Pressure 30.23 in    
Wind  
Wind Speed 8 mph (WNW)    
Max Wind Speed 17 mph    
Max Gust Speed 23 mph    
Visibility 10 miles    
Events      
Averages and records for this station are not official NWS values.
T = Trace of Precipitation, MM = Missing Value Source: NWS Daily Summary

Daily Weather History Graph

Daily Weather History Graph

Search for Another Location

Airport:

Trip Planner

Search our weather history database for the weather conditions in past years. The results will help you decide how hot, cold, wet, or windy it might be!

Date:

Astronomy

Nov. 15, 2012 Rise Set
Actual Time 7:13 AM CST 4:35 PM CST
Civil Twilight 6:40 AM CST 5:08 PM CST
Nautical Twilight 6:03 AM CST 5:45 PM CST
Astronomical Twilight 5:27 AM CST 6:21 PM CST
Moon 9:13 AM CST (11/15) 6:23 PM CST (11/15)
Length of Visible Light 10h 28m
Length of Day
9h 22m
Waxing Crescent, 5% of the Moon is Illuminated
Nov 15
Waxing Crescent
Nov 20
First Quarter
Nov 28
Full
Dec 6
Last Quarter
Dec 13
New

Hourly Weather History & Observations

Time (CST) Temp. Windchill Dew Point Humidity Pressure Visibility Wind Dir Wind Speed Gust Speed Precip Events Conditions
12:16 AM 33.8 °F 27.7 °F 26.6 °F 75% 30.10 in 10.0 mi SSW 6.9 mph - N/A   Clear
12:35 AM 33.8 °F 27.7 °F 26.6 °F 75% 30.09 in 10.0 mi SSW 6.9 mph - N/A   Clear
12:56 AM 33.8 °F 28.6 °F 26.6 °F 75% 30.09 in 10.0 mi SSW 5.8 mph - N/A   Clear
1:16 AM 33.8 °F 28.6 °F 26.6 °F 75% 30.08 in 10.0 mi SSW 5.8 mph - N/A   Clear
1:36 AM 33.8 °F 28.6 °F 26.6 °F 75% 30.08 in 10.0 mi SSW 5.8 mph - N/A   Clear
1:56 AM 32.0 °F 25.6 °F 26.6 °F 80% 30.08 in 10.0 mi SSW 6.9 mph - N/A   Clear
2:16 AM 32.0 °F 26.4 °F 26.6 °F 80% 30.08 in 10.0 mi SSW 5.8 mph - N/A   Clear
2:36 AM 32.0 °F 26.4 °F 26.6 °F 80% 30.08 in 10.0 mi South 5.8 mph - N/A   Clear
2:56 AM 32.0 °F 26.4 °F 26.6 °F 80% 30.08 in 10.0 mi SSW 5.8 mph - N/A   Scattered Clouds
3:16 AM 33.8 °F 28.6 °F 26.6 °F 75% 30.08 in 10.0 mi SW 5.8 mph - N/A   Mostly Cloudy
3:36 AM 33.8 °F 27.7 °F 28.4 °F 81% 30.08 in 10.0 mi SW 6.9 mph - N/A   Mostly Cloudy
3:56 AM 33.8 °F 27.0 °F 28.4 °F 81% 30.07 in 10.0 mi SSW 8.1 mph - N/A   Overcast
4:16 AM 33.8 °F 27.0 °F 28.4 °F 81% 30.07 in 10.0 mi SSW 8.1 mph - N/A   Overcast
4:36 AM 33.8 °F 26.4 °F 28.4 °F 81% 30.07 in 10.0 mi SW 9.2 mph - N/A   Overcast
4:55 AM 33.8 °F 26.4 °F 28.4 °F 81% 30.07 in 10.0 mi SSW 9.2 mph - N/A   Mostly Cloudy
5:16 AM 33.8 °F 27.0 °F 28.4 °F 81% 30.07 in 10.0 mi SSW 8.1 mph - N/A   Scattered Clouds
5:36 AM 33.8 °F 27.0 °F 28.4 °F 81% 30.07 in 10.0 mi SW 8.1 mph - N/A   Mostly Cloudy
6:16 AM 33.8 °F 27.0 °F 28.4 °F 81% 30.08 in 10.0 mi SW 8.1 mph - N/A   Overcast
6:36 AM 33.8 °F 27.7 °F 28.4 °F 81% 30.09 in 10.0 mi SSW 6.9 mph - N/A   Overcast
6:55 AM 33.8 °F 28.6 °F 28.4 °F 81% 30.09 in 10.0 mi SW 5.8 mph - N/A   Overcast
7:16 AM 35.6 °F 29.9 °F 28.4 °F 75% 30.10 in 10.0 mi SW 6.9 mph - N/A   Overcast
7:36 AM 35.6 °F 29.9 °F 28.4 °F 75% 30.11 in 10.0 mi SW 6.9 mph - N/A   Overcast
7:55 AM 35.6 °F 30.7 °F 28.4 °F 75% 30.12 in 10.0 mi SW 5.8 mph - N/A   Overcast
8:16 AM 35.6 °F 30.7 °F 28.4 °F 75% 30.13 in 10.0 mi WSW 5.8 mph - N/A   Overcast
8:36 AM 35.6 °F 31.7 °F 28.4 °F 75% 30.13 in 10.0 mi WSW 4.6 mph - N/A   Scattered Clouds
8:55 AM 37.4 °F 32.1 °F 28.4 °F 70% 30.14 in 10.0 mi West 6.9 mph - N/A   Clear
9:16 AM 37.4 °F 30.3 °F 28.4 °F 70% 30.14 in 10.0 mi West 10.4 mph - N/A   Clear
9:35 AM 39.2 °F 32.0 °F 28.4 °F 65% 30.15 in 10.0 mi WNW 11.5 mph - N/A   Clear
9:56 AM 41.0 °F 34.7 °F 28.4 °F 61% 30.16 in 10.0 mi WNW 10.4 mph 17.3 mph N/A   Clear
10:16 AM 42.8 °F 37.5 °F 28.4 °F 57% 30.17 in 10.0 mi NW 9.2 mph - N/A   Clear
10:36 AM 41.0 °F 33.9 °F 26.6 °F 57% 30.17 in 10.0 mi NW 12.7 mph 19.6 mph N/A   Clear
10:56 AM 41.0 °F 34.3 °F 26.6 °F 57% 30.19 in 10.0 mi NW 11.5 mph - N/A   Clear
11:16 AM 41.0 °F 32.8 °F 26.6 °F 57% 30.19 in 10.0 mi NW 16.1 mph 23.0 mph N/A   Clear
11:36 AM 42.8 °F 35.4 °F 23.0 °F 46% 30.20 in 10.0 mi NW 15.0 mph - N/A   Clear
11:56 AM 42.8 °F 35.1 °F 19.4 °F 39% 30.21 in 10.0 mi NW 16.1 mph - N/A   Clear
12:16 PM 42.8 °F 34.8 °F 17.6 °F 36% 30.21 in 10.0 mi NW 17.3 mph 21.9 mph N/A   Clear
12:36 PM 42.8 °F 36.2 °F 15.8 °F 34% 30.21 in 10.0 mi NW 12.7 mph 20.7 mph N/A   Clear
12:56 PM 42.8 °F 35.1 °F 10.4 °F 27% 30.21 in 10.0 mi WNW 16.1 mph 23.0 mph N/A   Clear
1:16 PM 42.8 °F 35.8 °F 8.6 °F 25% 30.22 in 10.0 mi WNW 13.8 mph 19.6 mph N/A   Clear
1:36 PM 42.8 °F 35.8 °F 5.0 °F 21% 30.23 in 10.0 mi NW 13.8 mph 20.7 mph N/A   Clear
1:56 PM 41.0 °F 32.8 °F -0.4 °F 18% 30.24 in 10.0 mi NW 16.1 mph 23.0 mph N/A   Clear
2:16 PM 41.0 °F 33.5 °F 1.4 °F 19% 30.25 in 10.0 mi NW 13.8 mph 18.4 mph N/A   Clear
2:36 PM 41.0 °F 32.8 °F -4.0 °F 15% 30.26 in 10.0 mi NW 16.1 mph 19.6 mph N/A   Clear
2:56 PM 39.2 °F 30.5 °F -2.2 °F 17% 30.27 in 10.0 mi NNW 16.1 mph 21.9 mph N/A   Clear
3:16 PM 39.2 °F 32.0 °F -0.4 °F 19% 30.28 in 10.0 mi NW 11.5 mph - N/A   Clear
3:36 PM 39.2 °F 31.2 °F -4.0 °F 16% 30.29 in 10.0 mi NW 13.8 mph - N/A   Clear
3:56 PM 37.4 °F 30.8 °F -5.8 °F 16% 30.30 in 10.0 mi NW 9.2 mph 19.6 mph N/A   Clear
4:15 PM 37.4 °F 28.9 °F -5.8 °F 16% 30.31 in 10.0 mi WNW 13.8 mph 20.7 mph N/A   Clear
4:36 PM 35.6 °F 28.0 °F -7.6 °F 16% 30.32 in 10.0 mi NW 10.4 mph 16.1 mph N/A   Clear
4:56 PM 33.8 °F 26.4 °F -5.8 °F 18% 30.33 in 10.0 mi NW 9.2 mph - N/A   Clear
5:15 PM 33.8 °F 26.4 °F -4.0 °F 20% 30.34 in 10.0 mi NW 9.2 mph - N/A   Clear
5:36 PM 30.2 °F 24.3 °F -2.2 °F 25% 30.35 in 10.0 mi NW 5.8 mph - N/A   Clear
5:56 PM 30.2 °F 22.6 °F -2.2 °F 25% 30.35 in 10.0 mi NW 8.1 mph - N/A   Clear
6:15 PM 30.2 °F 22.6 °F -0.4 °F 27% 30.36 in 10.0 mi NW 8.1 mph - N/A   Clear
6:36 PM 30.2 °F 21.3 °F 1.4 °F 29% 30.37 in 10.0 mi NW 10.4 mph - N/A   Clear
6:56 PM 28.4 °F 19.7 °F 1.4 °F 31% 30.37 in 10.0 mi NW 9.2 mph - N/A   Clear
7:15 PM 28.4 °F 20.4 °F 1.4 °F 31% 30.38 in 10.0 mi NW 8.1 mph - N/A   Clear
7:36 PM 28.4 °F 19.1 °F -0.4 °F 29% 30.38 in 10.0 mi NW 10.4 mph - N/A   Clear
7:55 PM 28.4 °F 19.7 °F -0.4 °F 29% 30.38 in 10.0 mi NNW 9.2 mph - N/A   Clear
8:16 PM 26.6 °F 17.5 °F 1.4 °F 34% 30.39 in 10.0 mi NW 9.2 mph - N/A   Clear
8:36 PM 26.6 °F 18.2 °F 1.4 °F 34% 30.39 in 10.0 mi NNW 8.1 mph - N/A   Clear
8:56 PM 26.6 °F 18.2 °F 1.4 °F 34% 30.40 in 10.0 mi NNW 8.1 mph - N/A   Clear
9:16 PM 24.8 °F 16.9 °F 1.4 °F 36% 30.41 in 10.0 mi NNW 6.9 mph - N/A   Clear
9:36 PM 24.8 °F 19.1 °F 3.2 °F 40% 30.41 in 10.0 mi NNW 4.6 mph - N/A   Clear
9:56 PM 24.8 °F - 3.2 °F 40% 30.42 in 10.0 mi Calm Calm - N/A   Clear
10:16 PM 24.8 °F - 3.2 °F 40% 30.42 in 10.0 mi Calm Calm - N/A   Clear
10:36 PM 23.0 °F 18.4 °F 5.0 °F 46% 30.43 in 10.0 mi North 3.5 mph - N/A   Clear
10:56 PM 23.0 °F 17.0 °F 5.0 °F 46% 30.44 in 10.0 mi NNW 4.6 mph - N/A   Clear
11:15 PM 21.2 °F 16.4 °F 5.0 °F 50% 30.44 in 10.0 mi NNW 3.5 mph - N/A   Clear
11:36 PM 23.0 °F 17.0 °F 6.8 °F 50% 30.45 in 10.0 mi NW 4.6 mph - N/A   Clear
11:56 PM 21.2 °F 14.9 °F 6.8 °F 54% 30.46 in 10.0 mi NW 4.6 mph - N/A   Clear